Location: Bothwell
(42.3833°S, 147.0000°E)
Time: 01:39:14
(UTC+10:00)

SPROUT - Visible Passes

Search period start: 22 September 2023 00:00
Search period end: 02 October 2023 01:00
Orbit: 542 x 550 km, 98.0° (Epoch: 21 September)

Date Brightness Start Highest point End Pass type
(mag) Time Alt. Az. Time Alt. Az. Time Alt. Az.
22 Sep ? 03:31:13 10° S 03:31:52 14° S 03:31:52 14° S visible
23 Sep ? 03:25:34 10° S 03:26:22 15° S 03:26:22 15° S visible
24 Sep ? 03:19:53 10° S 03:20:49 16° S 03:20:49 16° S visible
25 Sep ? 03:14:08 10° S 03:15:12 18° S 03:15:12 18° S visible
26 Sep ? 03:08:21 10° S 03:09:32 19° S 03:09:32 19° S visible
27 Sep ? 03:02:31 10° S 03:03:47 20° S 03:03:47 20° S visible
28 Sep ? 02:56:38 10° SSE 02:57:58 20° SSE 02:57:58 20° SSE visible
29 Sep ? 02:50:42 10° SSE 02:52:07 21° SSE 02:52:07 21° SSE visible
30 Sep ? 02:44:44 10° SSE 02:46:11 21° SSE 02:46:11 21° SSE visible
30 Sep ? 04:21:17 10° SW 04:21:47 11° SW 04:21:47 11° SW visible
01 Oct ? 03:38:43 10° SSE 03:40:11 21° SSE 03:40:11 21° SSE visible
01 Oct ? 05:14:43 10° SSW 05:15:47 13° SW 05:15:47 13° SW visible
